Regional Weather Roundup
Issued by NWS

Home | Current Version | Previous Version | Text Only | Print | Product List | Glossary On
Versions: 1 2 3 4 5 6 7 8 9 10 11 12 13 14 15 16 17 18 19 20 21 22 23 24 25 26 27 28 29 30 31 32 33 34 35 36 37 38 39 40 41 42 43 44 45 46 47 48 49 50
000
ASUS45 KABQ 241310
RWRNM
NEW MEXICO REGIONAL WEATHER ROUNDUP
NATIONAL WEATHER SERVICE ALBUQUERQUE NM
700 AM MDT WED AUG 24 2016

NOTE: "FAIR" MEANS FEW OR NO CLOUDS BELOW 12,000 FEET AGL WITH NO
       SIGNIFICANT WEATHER OR OBSTRUCTIONS TO VISION.

      THIS PRODUCT IS RELEASED AS TWO VERSIONS.  ONE VERSION NEAR
      THE TOP OF THE HOUR CONTAINING PRELIMINARY DATA FROM ALBUQUERQUE
      AND OTHER STATIONS.  A FINAL VERSION WITH ADDITIONAL DATA IS
      ISSUED ABOUT 10 MINUTES AFTER THE HOUR.

NMZ501-503-504-510>518-241400-
NORTHWEST PLATEAU/NORTHCENTRAL MOUNTAINS

CITY           SKY/WX    TMP DP  RH WIND       PRES   REMARKS
FARMINGTON     FAIR      56  53  90 NW3       30.23R
LOS ALAMOS     FAIR      51  45  82 N3        30.32R
SANTA FE       FAIR      50  47  89 N6        30.26R
TAOS           MOCLDY    43  36  75 NE5       30.31S
ANGEL FIRE     FAIR      30  28  94 CALM      30.38R

$$
NMZ402-403-502-505>509-241400-
WESTCENTRAL MOUNTAINS/SOUTHWEST MOUNTAINS

CITY           SKY/WX    TMP DP  RH WIND       PRES   REMARKS
GALLUP         FAIR      50  48  93 CALM      30.29R
GRANTS         FAIR      46  45  97 NW7       30.32R
SILVER CITY    FAIR      53  47  83 N8        30.24R

$$
NMZ407-409-411-412-241400-
SOUTHERN DESERTS

CITY           SKY/WX    TMP DP  RH WIND       PRES   REMARKS
DEMING         FAIR      58  52  80 CALM      30.18R
LAS CRUCES     FAIR      62  60  93 CALM      30.18R
HOLLOMAN AFB   FAIR      68  57  68 S9        30.14R
ALAMOGORDO     FAIR      66  57  72 S9        30.16R
T OR C         FAIR      60  48  64 NW5       30.19R

$$
NMZ519>523-241400-
CENTRAL VALLEYS/CENTRAL HIGHLANDS

CITY           SKY/WX    TMP DP  RH WIND       PRES   REMARKS
ALBUQUERQUE    FAIR      59  50  72 CALM      30.23R
DOUBLE EAGLE   PTCLDY    52  46  82 CALM      30.25R
MORIARTY ARPT  FAIR      46  43  89 NW5       30.28R
CLINES CORNERS FAIR      48  44  86 NW8       30.29R
BELEN          CLOUDY    58  50  77 CALM      30.23R
SOCORRO        FAIR      60  47  61 NW3       30.21R

$$
NMZ524>526-539-540-241400-
SOUTHCENTRAL MOUNTAINS

CITY           SKY/WX    TMP DP  RH WIND       PRES   REMARKS
RUIDOSO          N/A     55  50  82 CALM      30.32R

$$
NMZ527>531-241400-
NORTHEAST HIGHLANDS/NORTHEAST PLAINS

CITY           SKY/WX    TMP DP  RH WIND       PRES   REMARKS
LAS VEGAS      FAIR      51  41  68 N6        30.28R
RATON          CLOUDY    51  47  86 E6        30.24R
CLAYTON        FAIR      64  49  57 NW7       30.16R

$$
NMZ532>537-241400-
EASTCENTRAL PLAINS

CITY           SKY/WX    TMP DP  RH WIND       PRES   REMARKS
TUCUMCARI      FAIR      66  57  72 W8        30.13R
CANNON AFB     FAIR      65  57  73 SW15      30.16S
CLOVIS AIRPORT FAIR      63  55  77 SW8       30.16S

$$
NMZ028-029-538-241400-
SOUTHEAST PLAINS

CITY           SKY/WX    TMP DP  RH WIND       PRES   REMARKS
ROSWELL        CLOUDY    64  62  93 S13       30.15F
ARTESIA        FAIR      63  63 100 SE10      30.15S
CARLSBAD       FAIR      63  61  93 SE6       30.12F
HOBBS          LGT RAIN  63  63 100 SE3       30.16F


$$




USA.gov is the U.S. government's official web portal to all federal, state and local government web resources and services.